Regional Weather Roundup
Issued by NWS

Home | Current Version | Previous Version | Text Only | Print | Product List | Glossary Off
Versions: 1 2 3 4 5 6 7 8 9 10 11 12 13 14 15 16 17 18 19 20 21 22 23 24 25 26 27

000
ASUS45 KTFX 081610
RWRMT
MONTANA REGIONAL WEATHER ROUNDUP
NATIONAL WEATHER SERVICE GREAT FALLS MT
900 AM MST THU DEC 08 2016

NOTE: "FAIR" INDICATES FEW OR NO CLOUDS BELOW 12000 FEET WITH NO
SIGNIFICANT WEATHER AND/OR OBSTRUCTIONS TO VISIBILITY.

MTZ001>007-043-081700-
WEST OF THE DIVIDE

CITY           SKY/WX    TMP DP  RH WIND       PRES   REMARKS
KALISPELL      MOCLDY     3  -6  66 N13       30.42S WCI -14
MISSOULA       CLEAR      6  -1  73 SE13      30.38F WCI -10
BUTTE          CLOUDY    -5 -11  75 SW3       30.22S
MULLAN PASS    CLOUDY     0  -4  83 VRB7      30.06F FOG     WCI -13
ANACONDA         N/A     -6 -13  71 SW6       30.24F WCI -18
DEER LODGE       N/A     -2  -8  78 CALM      30.28F
EUREKA           N/A     -8 -11  84 CALM      30.50S
HAMILTON         N/A      7   0  72 S7        30.33S WCI  -5
LIBBY            N/A      9   3  78 N5        30.44S
PLAINS           N/A     16   4  59 N2        30.38F
RONAN            N/A     12   6  77 S7        30.36S WCI   1
$$

MTZ008-052>055-081700-
SOUTHWEST MONTANA

CITY           SKY/WX    TMP DP  RH WIND       PRES   REMARKS
BOZEMAN        CLOUDY    -2  -8  76 CALM      30.35R
DILLON         CLOUDY    -5 -11  75 S12       30.25S WCI -23
W YELLOWSTONE  CLOUDY   -13 -18  77 CALM      30.22F
ENNIS          CLEAR      0  -8  71 E5        30.29S
THREE FORKS      N/A     -3 -49   9 CALM      30.31S
TWIN BRIDGES     N/A     -4 -15  59 CALM      30.23
$$

MTZ009-010-012-014-046-048-049-054-081700-
EAST SLOPES AND CENTRAL MONTANA

CITY           SKY/WX    TMP DP  RH WIND       PRES   REMARKS
CUT BANK       CLOUDY    -5 -10  79 N3        30.46F
GREAT FALLS    CLOUDY    -3  -8  79 N5        30.47S
MALMSTROM AFB  FLURRIES  -4  -6  92 E6        30.51R WCI -16
HELENA         CLOUDY     3  -4  72 NW5       30.40F
AUGUSTA        LGT SNOW  -6 -10  83 NE3       30.39S
BOWMANS CRNR   FLURRIES  -7 -10  86 NE8       30.37S WCI -22
CHOTEAU          N/A     -4  -9  77 MISG      30.47S
CONRAD           N/A     -4  -9  79 NW3       30.45S
FAIRFIELD      MOCLDY    -7 -13  77 N3        30.45S
POWER          FLURRIES  -5 -10  81 NW6       30.46S WCI -18
RAYNESFORD     CLOUDY    -3  -8  79 E5        30.43S
ULM            FLURRIES  -4  -8  82 N8        30.48S WCI -19
$$

MTZ011-013-016-021-045-047-050-051-081700-
NORTH CENTRAL MONTANA

CITY           SKY/WX    TMP DP  RH WIND       PRES   REMARKS
HAVRE          CLOUDY    -8 -14  74 CALM      30.63S
LEWISTOWN      CLOUDY    -1  -8  72 NE6       30.42S WCI -13
N BAR RANCH    CLOUDY    -4 -13  65 CALM      30.41S
CHINOOK          N/A     -9 -15  77 CALM      30.66S
DENTON         CLOUDY    -3  -8  79 E12       30.46S WCI -21
GEYSER         FLURRIES  -3  -7  84 E6        30.42S WCI -16
GRASS RANGE    MOCLDY    -4  -7  84 N2        30.43F
JUDITH GAP     FLURRIES  -3  -8  82 MISG      30.36F
ROY              N/A     -6  -9  84 MISG      30.49S
STANFORD       FLURRIES  -5  -8  86 E3        30.38S
WINIFRED       CLOUDY    -3  -8  81 MISG      30.47S
$$

MTZ017>020-022>027-061-062-081700-
NORTHEAST MONTANA

CITY           SKY/WX    TMP DP  RH WIND       PRES   REMARKS
GLASGOW        CLEAR     -6 -11  79 W3        30.66R
JORDAN           N/A     -7 -12  79 W6        30.63R WCI -20
SIDNEY         FLURRIES   1  -5  75 NW9       30.69R WCI -14
WOLF POINT     CLEAR     -3 -10  72 W5        30.70R
PLENTYWOOD       N/A     -9 -15  77 W9        30.63S WCI -27
POPLAR           N/A     -2  -9  71 W7        30.70R WCI -16
SCOBEY           N/A     -9 -19  61 NW3       30.56R
$$

MTZ028>42-056>058-081700-
SOUTHCENTRAL AND SOUTHEAST MONTANA

CITY           SKY/WX    TMP DP  RH WIND       PRES   REMARKS
BAKER          CLOUDY    -4  -8  83 W14       30.59R FOG     WCI -24
BILLINGS       PTCLDY    -1  -7  75 NE3       30.49F
LIVINGSTON     CLOUDY    -5 -10  79 E8        30.35S WCI -20
MILES CITY     SUNNY     -3  -8  79 CALM      30.64S
BIG TIMBER     CLEAR     -6  -9  84 CALM      30.41S
EKALAKA          N/A     -6 -14  68 SW5       30.43S
FORSYTH          N/A      0  -6  78 CALM      30.62S
HARLOWTON      FLURRIES  -2  -6  83 SE6       30.40F WCI -14
LAUREL           N/A      1 -10  60 N7        30.40F WCI -12
$$

REGIONAL REPORTS...DAKOTAS

CITY           SKY/WX    TMP DP  RH WIND       PRES   REMARKS
WILLISTON      MOCLDY    -4 -11  72 W7        30.68R WCI -18
MINOT          SUNNY     -2  -8  76 W17       30.62R WCI -23
DICKINSON      CLOUDY    -5  -9  83 W16       30.57R FOG     WCI -27
BEACH          CLOUDY    -2  -6  84 W13       30.62S WCI -21
CROSBY           N/A     -4  -9  77 W9        30.66R WCI -20
TIOGA            N/A     -2  -6  84 NW12G17   30.61R WCI -20
WATFORD CITY   CLOUDY     0  -8  71 NW9       30.65S WCI -16
BISMARCK       PTSUNNY    1  -5  75 W10       30.65R WCI -15
GRAND FORKS    LGT SNOW  15  10  80 NW22      30.50R BLWGSNOWWCI  -3
FARGO          LGT SNOW  16   9  74 NW23      30.50R WCI  -2
BUFFALO SD       N/A     -3  -9  75 W12       30.48S WCI -21
RAPID CITY     SUNNY      2  -5  72 SE3       30.58R
$$

REGIONAL REPORTS...WYOMING/IDAHO/WASHINGTON

CITY           SKY/WX    TMP DP  RH WIND       PRES   REMARKS
GILLETTE       CLOUDY    -7 -12  79 CALM      30.45F
SHERIDAN       CLOUDY    -6 -13  71 CALM      30.47S
BUFFALO WY     CLOUDY     1 -11  57 S6        30.38S WCI -10
CODY           CLOUDY    -4  -9  79 S6        30.34F WCI -16
YELLOWSTONE LA   N/A    -14 -18  82 W3        30.14F
IDAHO FALLS    CLOUDY     8   1  73 N7        30.28F WCI  -3
SALMON         CLOUDY    -4  -8  84 CALM      30.34S
BOISE          CLOUDY    20  11  68 E5        30.24F
SPOKANE        PTCLDY    14   4  64 NE10      30.28F WCI   1
$$

REGIONAL REPORTS...ALBERTA

CITY           SKY/WX    TMP DP  RH WIND       PRES   REMARKS
EDMONTON       CLOUDY    -9 -17  70 CALM      30.69S
CALGARY        CRYSTALS -13 -18  77 VRB2      30.50S
LETHBRIDGE     MOCLDY   -17 -22  76 W8        30.58S WCI -34
MEDICINE HAT   MOCLDY   -17 -22  76 SW5       30.67S
WATERTON GATE    N/A    -27 -35  68 CALM        N/A
CARDSTON         N/A    -11 -17  77 SW3         N/A
MILK RIVER       N/A     -8 -11  84 NW6         N/A  WCI -21
$$

REGIONAL REPORTS...SASKATCHEWAN

CITY           SKY/WX    TMP DP  RH WIND       PRES   REMARKS
SWIFT CURRENT  FLURRIES  -9 -13  84 W9        30.57S WCI -27
REGINA         FLURRIES  -2  -8  78 NW17      30.63R WCI -24
SASKATOON      CRYSTALS  -8 -13  77 NW6       30.70S WCI -21
CYPRESS HILLS    N/A    -13 -18  77 NW2         N/A
VAL MARIE        N/A     -9 -15  77 CALM        N/A
ROCKGLEN         N/A     -9 -13  84 NW7         N/A  WCI -24
ASSINIBOIA       N/A     -9 -13  84 CALM        N/A
$$




USA.gov is the U.S. government's official web portal to all federal, state and local government web resources and services.